�N����,����,�~����,�C��,���x,�C��,����,���ϕ���,�ő�u�ԕ���,�ő厞����,���˗�,�I�_���x,�n�����x,�ő啗���N��,DTYPE
"20/03/15","00:10",0.0,4.3,87.6,1003.1,334.4,2.0,2.6,327.2,0.00,2.5,9.2,"00:00:24",1
"20/03/15","00:20",0.0,4.4,87.8,1003.1,323.0,2.0,3.1,330.9,0.00,2.6,9.1,"00:10:48",1
"20/03/15","00:30",0.0,4.4,88.0,1002.6,321.9,2.2,2.9,326.1,0.00,2.6,8.8,"00:24:16",1
"20/03/15","00:40",0.0,4.5,88.3,1002.9,323.5,2.6,3.3,320.8,0.00,2.8,9.1,"00:33:12",1
"20/03/15","00:50",0.0,4.6,88.5,1003.4,323.6,2.6,3.6,312.9,0.00,2.9,9.2,"00:48:08",1
"20/03/15","01:00",0.0,4.7,88.6,1003.1,330.0,2.1,3.9,330.4,0.00,3.0,9.2,"00:54:32",1
"20/03/15","01:10",0.0,4.8,88.7,1002.9,327.3,2.7,4.2,324.9,0.00,3.1,9.0,"01:08:00",1
"20/03/15","01:20",0.0,5.0,88.6,1003.1,325.0,2.7,4.1,313.2,0.00,3.3,9.2,"01:10:16",1
"20/03/15","01:30",0.0,5.1,88.4,1002.9,315.0,2.5,4.1,345.7,0.00,3.4,8.8,"01:28:00",1
"20/03/15","01:40",0.0,5.2,88.2,1003.4,319.8,2.0,3.1,337.4,0.00,3.4,9.0,"01:39:04",1
"20/03/15","01:50",0.0,5.2,88.0,1003.4,319.7,1.7,3.6,330.9,0.00,3.4,9.1,"01:48:48",1
"20/03/15","02:00",0.0,5.3,87.6,1003.1,312.2,2.8,3.9,324.2,0.00,3.5,9.0,"01:50:02",1
"20/03/15","02:10",0.0,5.3,87.1,1003.6,320.8,3.2,4.5,330.1,0.00,3.4,8.8,"02:04:32",1
"20/03/15","02:20",0.0,5.3,86.8,1003.6,312.0,2.3,3.4,306.6,0.00,3.3,9.0,"02:11:20",1
"20/03/15","02:30",0.0,5.3,86.4,1003.6,312.7,2.2,3.4,334.9,0.00,3.3,9.3,"02:27:12",1
"20/03/15","02:40",0.0,5.3,85.9,1003.8,320.6,2.5,4.1,324.8,0.00,3.2,9.0,"02:38:16",1
"20/03/15","02:50",0.0,5.4,85.4,1003.8,308.2,2.7,3.7,305.9,0.00,3.2,9.1,"02:45:36",1
"20/03/15","03:00",0.0,5.3,84.8,1003.4,299.7,2.7,4.3,320.5,0.00,3.0,8.9,"02:52:26",1
"20/03/15","03:10",0.0,5.3,84.4,1003.4,310.0,2.8,4.2,318.4,0.00,2.9,8.9,"03:05:12",1
"20/03/15","03:20",0.0,5.2,84.1,1003.1,311.2,2.8,5.2,330.8,0.00,2.8,9.0,"03:18:24",1
"20/03/15","03:30",0.0,5.1,83.9,1003.4,321.6,3.2,4.9,324.7,0.00,2.6,8.9,"03:22:48",1
"20/03/15","03:40",0.0,5.0,83.7,1003.1,311.3,2.7,4.4,335.1,0.00,2.5,9.0,"03:30:32",1
"20/03/15","03:50",0.0,5.0,83.5,1003.1,315.0,3.5,5.5,324.0,0.00,2.5,8.9,"03:47:04",1
"20/03/15","04:00",0.0,4.7,83.2,1003.4,306.2,3.1,5.0,302.5,0.00,2.1,8.9,"03:56:00",1
"20/03/15","04:10",0.0,4.7,82.9,1002.9,296.2,3.0,5.6,288.6,0.00,2.1,8.8,"04:06:20",1
"20/03/15","04:20",0.0,4.5,82.5,1003.4,292.6,3.0,4.5,301.3,0.00,1.8,9.0,"04:11:04",1
"20/03/15","04:30",0.0,4.5,82.3,1002.9,327.1,3.2,5.2,338.2,0.00,1.8,8.8,"04:20:40",1
"20/03/15","04:40",0.0,4.1,82.8,1003.1,323.6,2.2,3.9,328.2,0.00,1.5,8.7,"04:39:36",1
"20/03/15","04:50",0.0,3.8,83.7,1002.9,331.1,2.5,4.3,341.3,0.00,1.3,8.7,"04:40:16",1
"20/03/15","05:00",0.0,3.5,84.9,1002.4,331.7,2.2,3.1,342.7,0.00,1.2,8.6,"04:54:40",1
"20/03/15","05:10",0.0,3.4,85.8,1002.4,328.0,2.5,3.5,340.2,0.00,1.3,8.7,"05:02:48",1
"20/03/15","05:20",0.0,3.4,86.6,1002.6,313.0,2.1,2.8,328.6,0.00,1.4,8.5,"05:15:36",1
"20/03/15","05:30",0.0,3.4,87.0,1002.9,330.6,2.1,2.9,339.3,0.00,1.5,8.7,"05:22:08",1
"20/03/15","05:40",0.0,3.3,87.4,1003.1,327.9,2.1,2.7,323.8,0.00,1.5,8.5,"05:31:52",1
"20/03/15","05:50",0.0,3.3,87.5,1003.1,323.5,2.3,3.1,326.4,0.00,1.5,8.5,"05:44:00",1
"20/03/15","06:00",0.0,3.2,87.6,1003.1,318.2,2.5,3.9,327.4,0.00,1.4,8.6,"05:55:44",1
"20/03/15","06:10",0.0,3.1,87.5,1003.1,317.1,2.5,3.6,331.4,0.00,1.3,8.6,"06:01:36",1
"20/03/15","06:20",0.0,3.2,87.5,1003.4,326.8,3.0,3.7,330.1,0.00,1.4,8.2,"06:16:24",1
"20/03/15","06:30",0.0,3.0,87.3,1003.1,305.6,2.5,4.2,313.9,0.00,1.1,8.2,"06:22:16",1
"20/03/15","06:40",0.0,2.8,87.4,1003.4,312.3,2.8,4.0,326.5,0.00,1.0,8.5,"06:30:56",1
"20/03/15","06:50",0.0,2.7,87.5,1002.9,331.3,3.7,4.8,330.2,0.00,0.9,8.4,"06:40:56",1
"20/03/15","07:00",0.0,2.4,87.6,1002.6,329.7,2.7,5.4,329.1,0.00,0.6,8.2,"06:50:32",1
"20/03/15","07:10",0.0,2.3,88.1,1002.9,331.6,2.3,3.6,325.2,0.00,0.6,8.4,"07:09:12",1
"20/03/15","07:20",0.0,2.4,88.5,1003.1,323.7,2.5,4.9,335.2,0.00,0.7,8.2,"07:12:00",1
"20/03/15","07:30",0.0,2.9,88.8,1003.1,324.3,1.7,2.7,328.1,0.00,1.3,8.0,"07:25:52",1
"20/03/15","07:40",0.0,3.4,88.8,1003.4,335.7,1.5,2.4,327.9,0.01,1.8,8.1,"07:38:24",1
"20/03/15","07:50",0.0,3.8,88.7,1003.6,344.0,1.7,3.9,327.5,0.03,2.1,8.2,"07:43:24",1
"20/03/15","08:00",0.0,4.5,88.2,1004.3,331.8,2.1,4.2,329.1,0.04,2.8,8.2,"07:52:18",1
"20/03/15","08:10",0.0,5.2,87.0,1004.5,319.9,2.5,4.2,322.2,0.06,3.3,8.2,"08:00:48",1
"20/03/15","08:20",0.0,5.8,84.9,1004.5,313.8,3.0,4.9,328.5,0.09,3.5,8.2,"08:12:42",1
"20/03/15","08:30",0.0,6.4,81.6,1005.2,308.1,2.7,4.5,346.1,0.11,3.5,8.3,"08:24:56",1
"20/03/15","08:40",0.0,7.1,78.1,1005.0,252.0,1.6,3.7,242.4,0.14,3.6,8.4,"08:32:34",1
"20/03/15","08:50",0.0,7.6,74.3,1005.5,236.2,0.7,2.1,262.5,0.17,3.4,8.7,"08:47:04",1
"20/03/15","09:00",0.0,7.7,70.3,1004.8,279.1,1.8,4.2,323.7,0.20,2.7,8.6,"08:56:56",1
"20/03/15","09:10",0.0,8.1,67.3,1005.0,306.5,2.5,4.4,341.9,0.23,2.5,8.7,"09:05:44",1
"20/03/15","09:20",0.0,8.5,66.0,1005.0,239.0,1.6,3.3,331.7,0.26,2.6,9.0,"09:11:12",1
"20/03/15","09:30",0.0,9.0,63.2,1005.2,320.8,1.3,3.1,333.2,0.28,2.4,9.2,"09:29:44",1
"20/03/15","09:40",0.0,9.2,63.4,1005.2,261.3,2.0,4.5,319.4,0.31,2.7,9.2,"09:32:40",1
"20/03/15","09:50",0.0,9.2,62.2,1005.0,201.5,1.5,3.1,140.7,0.34,2.4,9.3,"09:48:34",1
"20/03/15","10:00",0.0,9.4,62.7,1004.8,174.5,1.3,3.4,128.5,0.36,2.7,9.4,"09:54:16",1
"20/03/15","10:10",0.0,9.7,62.5,1004.8,167.9,1.6,3.7,140.7,0.41,2.9,9.7,"10:03:44",1
"20/03/15","10:20",0.0,9.5,60.7,1004.5,222.5,1.3,3.2,123.3,0.27,2.3,9.8,"10:10:40",1
"20/03/15","10:30",0.0,9.1,61.7,1004.8,230.1,2.1,4.4,224.5,0.20,2.2,10.0,"10:21:52",1
"20/03/15","10:40",0.0,9.9,58.9,1004.5,289.1,2.7,6.2,226.4,0.42,2.3,10.0,"10:35:36",1
"20/03/15","10:50",0.0,10.1,55.8,1004.8,268.2,3.5,6.4,200.4,0.42,1.7,10.2,"10:49:12",1
"20/03/15","11:00",0.0,10.6,53.4,1004.5,227.8,3.4,6.8,213.8,0.53,1.6,10.5,"10:52:24",1
"20/03/15","11:10",0.0,11.2,50.9,1004.3,252.9,2.6,5.1,230.5,0.54,1.5,10.5,"11:09:36",1
"20/03/15","11:20",0.0,10.6,51.2,1004.1,267.0,3.1,6.3,332.3,0.36,1.0,10.8,"11:13:28",1
"20/03/15","11:30",0.0,10.3,52.5,1003.6,305.3,3.4,7.4,329.4,0.37,1.1,11.1,"11:26:16",1
"20/03/15","11:40",0.0,10.6,52.4,1003.6,297.6,3.6,8.2,343.8,0.42,1.3,11.1,"11:38:24",1
"20/03/15","11:50",0.0,10.9,52.3,1003.4,315.6,3.9,7.9,345.1,0.50,1.6,11.2,"11:45:04",1
"20/03/15","12:00",0.0,10.6,52.2,1003.1,282.5,2.7,5.7,224.8,0.25,1.3,11.3,"11:59:36",1
"20/03/15","12:10",0.0,11.2,53.2,1003.4,263.4,2.5,5.0,232.2,0.40,2.1,11.5,"12:03:04",1
"20/03/15","12:20",0.0,11.0,51.7,1003.1,300.7,3.5,6.6,331.5,0.33,1.5,11.6,"12:14:56",1
"20/03/15","12:30",0.0,11.5,51.5,1002.9,270.7,3.5,7.3,216.0,0.61,1.9,11.8,"12:28:32",1
"20/03/15","12:40",0.0,11.9,50.3,1003.4,254.1,3.0,6.5,234.5,0.62,1.9,11.7,"12:39:20",1
"20/03/15","12:50",0.0,11.8,50.8,1002.9,252.4,3.9,7.3,227.5,0.57,2.0,12.1,"12:46:40",1
"20/03/15","13:00",0.0,11.6,51.1,1002.9,297.9,3.2,6.5,317.7,0.38,1.9,12.1,"12:52:00",1
"20/03/15","13:10",0.0,11.1,49.8,1002.4,301.9,3.2,9.0,340.8,0.28,1.1,12.4,"13:01:12",1
"20/03/15","13:20",0.0,12.4,52.1,1002.6,287.2,2.8,5.5,277.7,0.61,2.9,12.4,"13:11:20",1
"20/03/15","13:30",0.0,12.5,50.3,1002.4,291.5,2.8,5.0,312.8,0.57,2.5,12.6,"13:28:24",1
"20/03/15","13:40",0.0,12.2,52.3,1002.4,260.7,3.9,7.2,250.8,0.63,2.8,12.8,"13:31:36",1
"20/03/15","13:50",0.0,12.0,49.8,1002.2,251.0,3.0,5.2,246.9,0.48,1.9,13.0,"13:44:00",1
"20/03/15","14:00",0.0,12.2,50.8,1002.2,258.5,2.8,5.0,240.0,0.40,2.4,13.1,"13:52:00",1
"20/03/15","14:10",0.0,11.4,50.8,1001.9,293.0,3.7,7.2,336.2,0.27,1.6,13.2,"14:09:36",1
"20/03/15","14:20",0.0,10.8,52.6,1001.7,305.9,3.6,6.6,317.3,0.14,1.5,13.1,"14:17:44",1
"20/03/15","14:30",0.0,10.7,53.4,1001.5,298.5,2.6,6.7,344.7,0.11,1.7,13.1,"14:21:44",1
"20/03/15","14:40",0.0,11.3,54.0,1001.5,296.3,2.6,6.0,305.6,0.28,2.4,13.2,"14:37:36",1
"20/03/15","14:50",0.0,11.0,53.0,1001.5,302.3,2.8,6.6,342.8,0.09,1.8,12.9,"14:43:44",1
"20/03/15","15:00",0.0,10.2,57.3,1001.5,258.8,3.9,8.3,234.3,0.05,2.2,13.0,"14:55:52",1
"20/03/15","15:10",0.0,10.4,62.5,1001.7,288.3,4.0,7.9,335.0,0.36,3.6,12.8,"15:01:52",1
"20/03/15","15:20",0.0,9.6,63.7,1001.7,282.7,3.6,6.4,341.5,0.07,3.1,12.7,"15:15:44",1
"20/03/15","15:30",0.0,9.4,68.8,1001.5,276.8,3.1,7.1,338.4,0.32,4.0,12.7,"15:21:22",1
"20/03/15","15:40",0.0,9.5,71.2,1001.0,288.4,3.0,5.7,333.7,0.23,4.6,12.7,"15:36:48",1
"20/03/15","15:50",0.0,10.1,69.8,1000.8,288.7,3.0,5.5,296.1,0.27,4.9,12.5,"15:46:16",1
"20/03/15","16:00",0.0,9.7,68.4,1001.0,301.3,2.5,4.9,316.8,0.06,4.2,12.7,"15:55:30",1
"20/03/15","16:10",0.0,9.8,68.4,1001.2,274.6,2.2,3.7,307.5,0.08,4.3,12.6,"16:00:16",1
"20/03/15","16:20",0.0,10.4,68.0,1001.0,270.4,3.0,6.8,312.5,0.25,4.8,12.5,"16:11:52",1
"20/03/15","16:30",0.0,10.6,65.6,1001.0,300.6,3.2,5.7,318.0,0.21,4.5,12.4,"16:26:32",1
"20/03/15","16:40",0.0,10.0,64.7,1001.2,300.3,2.7,6.6,338.6,0.04,3.7,12.6,"16:31:20",1
"20/03/15","16:50",0.0,9.7,64.5,1001.5,278.3,2.6,5.9,301.9,0.02,3.4,12.4,"16:46:24",1
"20/03/15","17:00",0.2,8.6,67.4,1001.5,263.4,4.2,8.9,317.0,0.04,2.9,12.2,"16:54:32",1
"20/03/15","17:10",0.0,7.6,72.0,1001.2,257.0,2.8,5.4,257.6,0.07,2.9,12.3,"17:00:48",1
"20/03/15","17:20",0.0,7.5,74.0,1001.0,281.4,2.1,3.2,293.1,0.03,3.2,12.2,"17:10:48",1
"20/03/15","17:30",0.0,7.5,75.4,1001.2,302.8,3.1,4.5,282.0,0.02,3.5,11.9,"17:27:20",1
"20/03/15","17:40",0.0,7.5,76.6,1001.0,286.7,3.0,5.2,312.7,0.01,3.7,11.8,"17:31:44",1
"20/03/15","17:50",0.0,7.6,77.4,1001.2,284.5,3.1,4.9,287.8,0.00,3.9,11.9,"17:41:36",1
"20/03/15","18:00",0.0,7.3,77.2,1001.5,295.2,5.1,11.0,348.0,0.00,3.6,11.7,"17:59:48",1
"20/03/15","18:10",0.2,6.2,79.3,1001.5,326.3,6.0,12.4,342.0,0.02,2.9,11.5,"18:03:26",1
"20/03/15","18:20",0.0,6.2,80.9,1001.0,283.0,2.6,4.2,304.7,0.01,3.2,11.3,"18:16:08",1
"20/03/15","18:30",0.0,5.9,82.5,1001.2,301.6,2.0,2.7,332.6,0.00,3.2,11.3,"18:23:52",1
"20/03/15","18:40",0.0,5.6,83.8,1001.0,281.2,2.0,2.8,297.8,0.00,3.1,11.2,"18:31:44",1
"20/03/15","18:50",0.0,5.5,84.9,1001.5,287.7,1.6,2.4,327.0,0.00,3.2,11.0,"18:48:00",1
"20/03/15","19:00",0.0,5.4,85.9,1001.2,282.8,1.6,2.5,328.2,0.00,3.3,10.9,"18:53:20",1
"20/03/15","19:10",0.0,5.4,86.8,1001.5,271.2,2.0,3.1,291.0,0.00,3.4,10.9,"19:00:02",1
"20/03/15","19:20",0.0,5.3,87.5,1001.5,288.0,2.0,2.9,329.8,0.00,3.4,11.0,"19:19:36",1
"20/03/15","19:30",0.0,5.2,88.3,1001.2,310.2,2.6,4.1,319.6,0.00,3.5,10.7,"19:26:16",1
"20/03/15","19:40",0.0,5.3,89.0,1001.0,310.7,2.5,3.6,333.0,0.00,3.7,10.6,"19:36:24",1
"20/03/15","19:50",0.0,5.1,89.4,1001.2,281.8,1.8,2.5,299.9,0.00,3.5,10.7,"19:48:08",1
"20/03/15","20:00",0.0,4.9,90.0,1001.7,303.8,2.8,4.0,299.7,0.00,3.4,10.3,"19:59:20",1
"20/03/15","20:10",0.0,4.9,90.6,1001.2,289.8,2.7,3.6,296.6,0.00,3.5,10.3,"20:00:24",1
"20/03/15","20:20",0.0,4.9,90.9,1001.2,274.0,2.3,3.3,290.0,0.00,3.6,10.3,"20:10:48",1
"20/03/15","20:30",0.0,4.8,91.3,1001.2,309.8,3.1,4.4,313.9,0.00,3.5,10.2,"20:25:04",1
"20/03/15","20:40",0.0,4.6,91.6,1001.2,295.3,2.6,4.1,309.5,0.00,3.4,10.0,"20:35:12",1
"20/03/15","20:50",0.0,4.4,91.9,1001.5,299.2,2.6,4.2,319.8,0.00,3.2,10.1,"20:40:24",1
"20/03/15","21:00",0.0,4.3,92.2,1001.5,299.5,2.3,3.2,310.0,0.00,3.2,10.0,"20:56:34",1
"20/03/15","21:10",0.0,4.2,92.4,1001.7,280.1,1.8,2.6,299.1,0.00,3.1,9.9,"21:01:42",1
"20/03/15","21:20",0.0,4.1,92.6,1001.2,300.8,1.8,2.7,307.2,0.00,3.1,9.7,"21:11:58",1
"20/03/15","21:30",0.0,3.7,92.9,1001.2,319.0,2.5,4.1,313.9,0.00,2.7,9.7,"21:27:04",1
"20/03/15","21:40",0.0,3.8,93.2,1001.0,313.5,2.6,3.1,321.1,0.00,2.8,9.7,"21:34:14",1
"20/03/15","21:50",0.0,3.6,93.4,1000.8,303.1,3.1,3.9,313.4,0.00,2.7,9.6,"21:49:44",1
"20/03/15","22:00",0.0,3.7,93.6,1000.8,305.5,3.5,4.3,325.3,0.00,2.8,9.4,"21:57:18",1
"20/03/15","22:10",0.0,3.6,93.6,1000.5,284.9,2.1,4.2,308.9,0.00,2.7,9.2,"22:00:32",1
"20/03/15","22:20",0.0,3.5,93.9,1000.5,261.2,1.6,2.4,274.7,0.00,2.7,9.3,"22:10:08",1
"20/03/15","22:30",0.0,3.5,94.0,1000.3,286.7,2.6,3.5,310.8,0.00,2.7,9.3,"22:25:22",1
"20/03/15","22:40",0.0,3.4,94.1,1000.5,319.9,2.7,3.7,322.8,0.00,2.6,9.4,"22:39:38",1
"20/03/15","22:50",0.0,3.1,94.2,1000.0,303.3,2.3,3.4,322.2,0.00,2.3,9.1,"22:42:18",1
"20/03/15","23:00",0.0,3.0,94.4,1000.3,297.3,1.8,2.4,309.0,0.00,2.2,9.1,"22:53:58",1
"20/03/15","23:10",0.0,3.1,94.6,1000.0,288.8,1.6,2.0,279.7,0.00,2.4,9.4,"23:06:20",1
"20/03/15","23:20",0.0,3.3,94.6,1000.3,303.7,1.1,1.9,319.9,0.00,2.6,9.1,"23:11:06",1
"20/03/15","23:30",0.0,3.3,94.7,1000.0,291.0,1.1,2.0,315.3,0.00,2.6,9.3,"23:23:12",1
"20/03/15","23:40",0.0,3.3,94.8,1000.0,311.5,1.7,2.4,327.4,0.00,2.6,8.9,"23:38:24",1
"20/03/15","23:50",0.0,3.5,94.9,1000.0,308.4,2.0,3.1,314.4,0.00,2.8,9.0,"23:46:24",1
"20/03/15","24:00",0.0,3.7,94.9,1000.0,291.2,1.6,2.1,314.4,0.00,3.0,9.1,"23:53:12",1
